GW7273 Weather Reports


time (UTC)temp
C
wind
direction
speed
KPH
gust
KPH
rain 1hr
cm
rain 24hr
cm
rain mn
cm
humidity
%
barometer
mb
20260508043044 7 342 3.2 9.7 0.00 0.00 0.00 78 1018.3
20260508041547 7 18 3.2 9.7 0.00 0.00 0.00 77 1018.5
20260508040053 7 337 1.6 8.0 0.00 0.00 0.00 77 1018.4
20260508034545 7 15 3.2 12.9 0.00 0.00 0.00 77 1017.9
20260508033041 7 300 6.4 12.9 0.00 0.00 0.00 77 1017.9
20260508031552 7 19 4.8 12.9 0.00 0.00 0.00 76 1018.0
20260508030046 7 355 3.2 11.3 0.00 0.00 0.00 76 1017.9
20260508024544 7 8 3.2 9.7 0.00 0.00 0.00 76 1017.9
20260508023042 7 347 4.8 12.9 0.00 0.00 0.00 76 1018.0
20260508021540 7 26 3.2 11.3 0.00 0.00 0.00 77 1018.0
20260508020040 7 304 3.2 8.0 0.00 0.00 0.00 78 1017.8
20260508014540 7 15 3.2 9.7 0.00 0.00 0.00 78 1017.7
20260508013043 7 357 3.2 9.7 0.00 0.00 0.00 79 1017.8
20260508011546 7 336 4.8 11.3 0.00 0.00 0.00 79 1017.9
20260508010043 7 4 3.2 9.7 0.00 0.00 0.00 79 1017.9
20260508004542 7 344 1.6 6.4 0.00 0.00 0.00 79 1017.8
20260508003041 7 344 1.6 4.8 0.00 0.00 0.00 78 1017.9
20260508001540 7 15 1.6 4.8 0.00 0.00 0.00 78 1017.9
20260508000048 7 7 3.2 9.7 0.00 0.00 0.00 79 1017.8
20260507234546 7 325 3.2 6.4 0.00 0.00 0.00 77 1017.9
20260507233040 7 38 3.2 8.0 0.00 0.00 0.00 76 1017.9
20260507231543 7 10 3.2 8.0 0.00 0.00 0.00 77 1017.9
20260507230038 7 16 3.2 6.4 0.00 0.00 0.00 79 1017.9
20260507224542 7 4 1.6 4.8 0.00 0.00 0.00 77 1017.9
20260507223043 7 357 0.0 8.0 0.00 0.00 0.00 76 1018.0
20260507221542 8 0 0.0 9.7 0.00 0.00 0.00 76 1018.0
20260507220040 8 113 1.6 8.0 0.00 0.00 0.00 75 1017.9
20260507214540 8 56 3.2 9.7 0.00 0.00 0.00 75 1017.7
20260507213041 8 75 1.6 8.0 0.00 0.00 0.00 76 1017.6
20260507211550 8 10 1.6 8.0 0.00 0.00 0.00 78 1017.4
20260507210048 8 6 1.6 11.3 0.00 0.00 0.00 78 1017.2
20260507204543 8 16 1.6 8.0 0.00 0.00 0.00 79 1017.1
20260507203041 8 32 1.6 6.4 0.00 0.00 0.00 79 1017.0
20260507201540 8 6 3.2 8.0 0.00 0.00 0.00 80 1016.7
20260507200037 8 344 1.6 6.4 0.00 0.00 0.00 79 1016.6
20260507194544 8 346 3.2 6.4 0.00 0.00 0.00 79 1016.7
20260507193051 8 30 3.2 8.0 0.00 0.00 0.00 78 1016.5
20260507191541 8 15 3.2 11.3 0.00 0.00 0.00 78 1016.6
20260507190041 8 6 3.2 11.3 0.00 0.00 0.00 77 1016.5
20260507184541 8 356 4.8 11.3 0.00 0.00 0.00 77 1016.1
20260507183045 8 11 4.8 11.3 0.00 0.00 0.00 78 1016.0
20260507181543 9 18 4.8 17.7 0.00 0.00 0.00 77 1016.0
20260507180042 9 356 4.8 17.7 0.00 0.00 0.00 78 1015.5
20260507174559 9 321 6.4 16.1 0.00 0.00 0.00 77 1015.3
20260507173040 9 39 6.4 16.1 0.00 0.00 0.00 76 1015.2
20260507171550 9 358 4.8 12.9 0.00 0.00 0.00 76 1015.0
20260507170036 10 355 9.7 14.5 0.00 0.00 0.00 75 1014.9
20260507164542 10 317 4.8 17.7 0.00 0.00 0.00 75 1014.6
20260507163041 10 328 4.8 12.9 0.00 0.00 0.00 74 1014.7
20260507161544 10 11 3.2 16.1 0.00 0.00 0.00 75 1014.7
20260507160108 10 29 6.4 12.9 0.00 0.00 0.00 75 1014.7
20260507154540 10 305 4.8 12.9 0.00 0.00 0.00 76 1014.9
20260507153035 9 359 8.0 16.1 0.00 0.00 0.00 77 1014.9
20260507151542 9 11 8.0 16.1 0.00 0.00 0.00 77 1014.9
20260507150041 8 357 4.8 12.9 0.00 0.00 0.00 78 1014.8
20260507144543 8 4 4.8 12.9 0.00 0.00 0.00 80 1014.9
20260507143038 8 26 4.8 11.3 0.00 0.00 0.00 80 1014.8
20260507141537 8 328 6.4 14.5 0.00 0.00 0.00 79 1015.0
20260507140045 8 18 4.8 14.5 0.00 0.00 0.00 79 1014.6
20260507134544 8 338 3.2 9.7 0.00 0.00 0.00 80 1014.6
20260507133042 8 15 1.6 11.3 0.00 0.00 0.00 81 1014.7
20260507131606 8 326 1.6 12.9 0.00 0.00 0.00 83 1014.7
20260507130037 8 357 4.8 12.9 0.00 0.00 0.00 83 1014.5
20260507124546 8 292 6.4 14.5 0.00 0.00 0.00 81 1014.3
20260507123042 8 360 6.4 14.5 0.00 0.00 0.00 81 1014.3
20260507121543 8 25 4.8 11.3 0.00 0.00 0.00 83 1014.2
20260507120044 8 9 6.4 11.3 0.00 0.00 0.00 83 1014.0
20260507114540 8 3 3.2 14.5 0.00 0.00 0.00 82 1013.8
20260507113103 8 342 6.4 16.1 0.00 0.00 0.00 82 1013.5
20260507111541 8 4 3.2 11.3 0.00 0.00 0.00 81 1013.5
20260507110047 8 115 4.8 12.9 0.00 0.00 0.00 81 1013.7
20260507104554 8 349 4.8 11.3 0.00 0.00 0.00 82 1013.6
20260507103042 8 29 6.4 12.9 0.00 0.00 0.00 82 1013.4
20260507101542 8 340 4.8 11.3 0.00 0.00 0.00 84 1013.3
20260507100052 8 323 4.8 11.3 0.00 0.00 0.00 84 1012.9
20260507094539 8 14 4.8 14.5 0.00 0.00 0.00 84 1012.6
20260507093042 8 296 8.0 17.7 0.00 0.00 0.00 82 1012.5
20260507091547 8 11 3.2 14.5 0.00 0.00 0.00 82 1012.3
20260507090042 8 66 3.2 11.3 0.00 0.00 0.00 83 1012.2
20260507084552 8 42 3.2 12.9 0.00 0.00 0.00 82 1012.2
20260507083041 7 63 6.4 14.5 0.00 0.00 0.00 82 1012.2
20260507081536 7 15 6.4 16.1 0.00 0.00 0.00 83 1012.1
20260507080047 7 56 4.8 11.3 0.00 0.00 0.00 84 1011.8
20260507074546 7 48 4.8 11.3 0.00 0.00 0.00 85 1011.5
20260507073043 7 43 3.2 14.5 0.00 0.00 0.00 86 1011.4
20260507071543 7 71 3.2 11.3 0.00 0.00 0.00 86 1011.3
20260507070054 7 354 4.8 12.9 0.00 0.00 0.00 87 1011.3
20260507064544 7 186 3.2 16.1 0.00 0.00 0.00 87 1011.1
20260507063038 7 301 4.8 11.3 0.00 0.00 0.00 88 1011.0
20260507061542 7 41 4.8 14.5 0.00 0.00 0.00 89 1010.9
20260507060045 6 326 6.4 14.5 0.00 0.00 0.00 90 1011.0
20260507054542 6 352 4.8 14.5 0.00 0.00 0.00 91 1010.9
20260507053041 6 21 8.0 17.7 0.00 0.00 0.00 91 1010.6
20260507051540 6 20 8.0 17.7 0.00 0.00 0.00 91 1010.3
20260507044551 6 322 6.4 16.1 0.00 0.00 0.00 90 1010.2